Location: Newark
(42.6681°N, 4.0833°W)
Time: 20:03:37
(UTC+00:00)

X-37B - Pass Details

Date: 06 October 2020
Orbit: 382 x 392 km, 45.0° (Epoch: 15 October)

Event Time Altitude Azimuth Distance (km) Brightness Sun altitude
Rises 18:24:17 0° 246° (WSW) 2,262 5.9 -7.4°
Reaches altitude 10° 18:26:21 10° 244° (WSW) 1,408 4.6 -7.8°
Maximum altitude 18:29:30 73° 160° (SSE) 407 0.6 -8.4°
Enters shadow 18:32:22 12° 75° (ENE) 1,290 2.6 -8.9°
